Regional Weather Roundup
Issued by NWS Goodland, KS

Home | Current Version | Previous Version | Graphics & Text | Print | Product List | Glossary Off
Versions: 1 2 3 4 5 6 7 8 9 10 11 12 13 14 15 16 17 18 19 20 21 22 23 24 25 26 27 28 29 30 31 32 33 34 35 36 37 38 39 40 41 42 43 44 45 46 47 48 49 50

000
ASUS43 KGLD 201808
RWRGLD

GOODLAND FORECAST AREA HOURLY WEATHER ROUNDUP
NATIONAL WEATHER SERVICE GOODLAND KS
1200 PM MDT SAT SEP 20 2014

...OFFICIAL OBSERVATIONS...

CITY           SKY/WX    TMP DP  RH WIND       PRES   REMARKS
GOODLAND KS    SUNNY     79  53  40 NE18G26   30.14R
HILL CITY KS   SUNNY     84  63  49 NE13G21   30.02R
IMPERIAL NEB   SUNNY     81  46  29 NE14      30.13S
MCCOOK NEB     SUNNY     84  51  31 NE12      30.08S
AKRON CO       SUNNY     75  49  39 VRB5G16   30.22S
BURLINGTON CO  SUNNY     78  51  38 NE15G24   30.17R
LIMON CO       SUNNY     75  50  41 VRB7      30.25S
$$

...UNOFFICIAL OBSERVATIONS...

CITY           SKY/WX    TMP DP  RH WIND       PRES   REMARKS
COLBY KS       SUNNY     81  57  44 N21       30.10R
GOVE KS          N/A     82  32  16 MISG        N/A
NORTON KS      SUNNY     84  45  24 N17G23    30.03
SHARON SPRINGS   N/A     81  62  52 NE12G20     N/A
WAKEENEY KS      N/A     84  59  41 MISG        N/A
TRENTON NEB      N/A     82  32  16 NE12        N/A
KIT CARSON CO    N/A     79  55  43 N12G23      N/A
YUMA CO          N/A     77  47  34 E12         N/A
$$



USA.gov is the U.S. government's official web portal to all federal, state and local government web resources and services.